| time (UTC) | temp C | wind direction | speed KPH | gust KPH | rain 1hr cm | rain 24hr cm | rain mn cm | humidity % | barometer mb |
| 20260508122516 | 17 | 0.0 | 1.6 | 0.00 | 0.84 | 0.00 | 63 | 1012.2 | |
| 20260508121516 | 17 | 0.0 | 4.8 | 0.00 | 0.84 | 0.00 | 65 | 1012.2 | |
| 20260508120516 | 17 | 338 | 1.6 | 11.3 | 0.00 | 0.84 | 0.00 | 67 | 1012.4 |
| 20260508115516 | 16 | 0.0 | 3.2 | 0.00 | 0.84 | 0.00 | 66 | 1012.4 | |
| 20260508114516 | 16 | 338 | 3.2 | 16.1 | 0.00 | 0.84 | 0.00 | 71 | 1012.7 |
| 20260508113516 | 16 | 338 | 1.6 | 12.9 | 0.00 | 0.84 | 0.00 | 70 | 1012.8 |
| 20260508112516 | 16 | 338 | 4.8 | 12.9 | 0.00 | 0.84 | 0.00 | 72 | 1012.7 |
| 20260508111515 | 15 | 338 | 1.6 | 8.0 | 0.00 | 0.84 | 0.00 | 75 | 1012.7 |
| 20260508110516 | 15 | 338 | 3.2 | 19.3 | 0.00 | 0.84 | 0.00 | 72 | 1012.9 |
| 20260508105515 | 15 | 338 | 6.4 | 16.1 | 0.00 | 0.84 | 0.00 | 76 | 1013.0 |
| 20260508104556 | 14 | 338 | 6.4 | 14.5 | 0.00 | 0.84 | 0.00 | 74 | 1012.9 |
| 20260508103516 | 14 | 338 | 4.8 | 11.3 | 0.00 | 0.84 | 0.00 | 79 | 1013.0 |
| 20260508102516 | 13 | 338 | 8.0 | 17.7 | 0.00 | 0.84 | 0.00 | 82 | 1013.0 |
| 20260508101536 | 12 | 338 | 8.0 | 16.1 | 0.00 | 0.84 | 0.00 | 84 | 1012.8 |
| 20260508100516 | 12 | 338 | 12.9 | 17.7 | 0.00 | 0.84 | 0.00 | 85 | 1012.9 |
| 20260508095516 | 11 | 0.0 | 0.0 | 0.00 | 0.84 | 0.00 | 83 | 1012.4 | |
| 20260508094516 | 11 | 0.0 | 0.0 | 0.00 | 0.84 | 0.00 | 82 | 1012.2 | |
| 20260508093516 | 11 | 0.0 | 0.0 | 0.00 | 0.84 | 0.00 | 82 | 1012.5 | |
| 20260508092515 | 11 | 338 | 1.6 | 6.4 | 0.00 | 0.84 | 0.00 | 81 | 1012.5 |
| 20260508091515 | 11 | 0.0 | 0.0 | 0.00 | 0.84 | 0.00 | 81 | 1012.0 | |
| 20260508090535 | 11 | 0.0 | 0.0 | 0.00 | 0.84 | 0.00 | 81 | 1012.6 | |
| 20260508085515 | 11 | 0.0 | 0.0 | 0.00 | 0.84 | 0.00 | 81 | 1012.6 | |
| 20260508084515 | 11 | 338 | 1.6 | 4.8 | 0.00 | 0.84 | 0.00 | 81 | 1012.3 |
| 20260508083515 | 11 | 0.0 | 0.0 | 0.00 | 0.84 | 0.00 | 81 | 1012.3 | |
| 20260508082515 | 11 | 0.0 | 0.0 | 0.00 | 0.84 | 0.00 | 81 | 1012.2 | |
| 20260508081516 | 11 | 0.0 | 0.0 | 0.00 | 0.84 | 0.00 | 81 | 1012.0 | |
| 20260508080515 | 11 | 0.0 | 0.0 | 0.00 | 0.84 | 0.00 | 80 | 1012.0 | |
| 20260508075536 | 11 | 338 | 3.2 | 8.0 | 0.00 | 0.84 | 0.00 | 80 | 1011.8 |
| 20260508074518 | 11 | 0.0 | 3.2 | 0.00 | 0.84 | 0.00 | 80 | 1011.7 | |
| 20260508073517 | 10 | 0.0 | 1.6 | 0.00 | 0.84 | 0.00 | 80 | 1011.9 | |
| 20260508072517 | 10 | 0.0 | 0.0 | 0.00 | 0.84 | 0.00 | 80 | 1011.8 | |
| 20260508071517 | 10 | 0.0 | 0.0 | 0.00 | 0.84 | 0.00 | 80 | 1011.5 | |
| 20260508070517 | 10 | 0.0 | 0.0 | 0.00 | 0.84 | 0.00 | 81 | 1011.8 | |
| 20260508065517 | 10 | 0.0 | 0.0 | 0.00 | 0.84 | 0.00 | 80 | 1011.6 | |
| 20260508064517 | 9 | 0.0 | 0.0 | 0.00 | 0.84 | 0.00 | 80 | 1011.2 | |
| 20260508063537 | 9 | 0.0 | 0.0 | 0.00 | 0.84 | 0.00 | 80 | 1011.3 | |
| 20260508062537 | 8 | 0.0 | 0.0 | 0.00 | 0.84 | 0.00 | 81 | 1011.2 | |
| 20260508061517 | 8 | 0.0 | 0.0 | 0.00 | 0.84 | 0.00 | 81 | 1010.8 | |
| 20260508060517 | 7 | 0.0 | 0.0 | 0.00 | 0.84 | 0.00 | 81 | 1010.6 | |
| 20260508055517 | 7 | 0.0 | 0.0 | 0.00 | 0.84 | 0.00 | 82 | 1010.5 | |
| 20260508054517 | 7 | 0.0 | 0.0 | 0.00 | 0.84 | 0.00 | 82 | 1010.4 | |
| 20260508053517 | 7 | 0.0 | 0.0 | 0.00 | 0.84 | 0.00 | 82 | ||
| 20260508052517 | 7 | 0.0 | 0.0 | 0.00 | 0.84 | 0.00 | 82 | ||
| 20260508051517 | 7 | 0.0 | 0.0 | 0.00 | 0.84 | 0.00 | 82 | ||
| 20260508050517 | 7 | 0.0 | 0.0 | 0.00 | 0.84 | 0.00 | 82 | ||
| 20260508045517 | 7 | 0.0 | 0.0 | 0.00 | 0.84 | 0.00 | 82 | ||
| 20260508044537 | 7 | 0.0 | 0.0 | 0.00 | 0.84 | 0.00 | 82 | ||
| 20260508043517 | 7 | 0.0 | 0.0 | 0.00 | 0.84 | 0.00 | 82 | 1009.9 | |
| 20260508042517 | 7 | 0.0 | 0.0 | 0.00 | 0.84 | 0.00 | 82 | 1010.1 | |
| 20260508041517 | 7 | 338 | 1.6 | 4.8 | 0.00 | 0.84 | 0.00 | 82 | 1010.1 |
| 20260508040517 | 7 | 338 | 4.8 | 6.4 | 0.00 | 0.84 | 0.00 | 82 | 1009.8 |
| 20260508035517 | 7 | 0.0 | 0.0 | 0.00 | 0.84 | 0.00 | 82 | 1009.5 | |
| 20260508034517 | 7 | 0.0 | 0.0 | 0.00 | 0.84 | 0.00 | 82 | 1009.4 | |
| 20260508033517 | 7 | 0.0 | 0.0 | 0.00 | 0.84 | 0.00 | 83 | 1009.7 | |
| 20260508032517 | 7 | 338 | 1.6 | 4.8 | 0.00 | 0.84 | 0.00 | 82 | 1009.8 |
| 20260508031517 | 7 | 0.0 | 0.0 | 0.00 | 0.84 | 0.00 | 82 | 1010.2 | |
| 20260508030517 | 7 | 0.0 | 0.0 | 0.00 | 0.84 | 0.00 | 82 | 1010.3 | |
| 20260508025517 | 6 | 0.0 | 0.0 | 0.00 | 0.84 | 0.00 | 83 | 1010.4 | |
| 20260508024517 | 6 | 0.0 | 0.0 | 0.00 | 0.84 | 0.00 | 84 | 1010.3 | |
| 20260508023637 | 6 | 0.0 | 0.0 | 0.00 | 0.84 | 0.00 | 84 | 1010.6 | |
| 20260508022517 | 6 | 0.0 | 0.0 | 0.00 | 0.84 | 0.00 | 83 | 1010.6 | |
| 20260508021537 | 6 | 0.0 | 0.0 | 0.00 | 0.84 | 0.00 | 83 | 1010.7 | |
| 20260508020517 | 6 | 0.0 | 0.0 | 0.00 | 0.84 | 0.00 | 84 | 1010.8 | |
| 20260508015517 | 6 | 0.0 | 4.8 | 0.00 | 0.84 | 0.00 | 84 | 1010.8 | |
| 20260508014537 | 6 | 0.0 | 1.6 | 0.00 | 0.84 | 0.00 | 84 | 1010.9 | |
| 20260508013537 | 7 | 0.0 | 0.0 | 0.00 | 0.84 | 0.00 | 84 | 1011.1 | |
| 20260508012517 | 7 | 0.0 | 0.0 | 0.00 | 0.84 | 0.00 | 84 | 1011.2 | |
| 20260508011517 | 7 | 0.0 | 0.0 | 0.00 | 0.84 | 0.00 | 84 | 1011.3 | |
| 20260508010517 | 7 | 0.0 | 0.0 | 0.00 | 0.84 | 0.00 | 84 | 1011.6 | |
| 20260508005517 | 7 | 0.0 | 0.0 | 0.00 | 0.84 | 0.00 | 85 | 1011.8 | |
| 20260508004517 | 7 | 0.0 | 0.0 | 0.00 | 0.84 | 0.00 | 84 | 1012.0 | |
| 20260508003517 | 7 | 0.0 | 0.0 | 0.00 | 0.84 | 0.00 | 84 | 1011.9 | |
| 20260508002517 | 7 | 0.0 | 0.0 | 0.00 | 0.84 | 0.00 | 85 | 1011.8 | |
| 20260508001517 | 7 | 0.0 | 1.6 | 0.00 | 0.84 | 0.00 | 85 | 1012.0 | |
| 20260508000517 | 7 | 338 | 1.6 | 3.2 | 0.00 | 0.84 | 0.00 | 84 | 1012.1 |
| 20260507235517 | 7 | 338 | 3.2 | 4.8 | 0.00 | 0.84 | 0.00 | 85 | 1012.0 |
| 20260507234516 | 8 | 0.0 | 0.0 | 0.00 | 0.84 | 0.00 | 85 | 1012.2 | |
| 20260507233517 | 8 | 0.0 | 0.0 | 0.00 | 0.84 | 0.00 | 84 | 1012.3 | |
| 20260507232517 | 8 | 0.0 | 0.0 | 0.00 | 0.84 | 0.00 | 85 | 1012.4 | |
| 20260507231516 | 8 | 0.0 | 0.0 | 0.00 | 0.84 | 0.00 | 84 | 1012.3 | |
| 20260507230516 | 8 | 0.0 | 0.0 | 0.00 | 0.84 | 0.00 | 84 | 1012.3 | |
| 20260507225536 | 8 | 0.0 | 0.0 | 0.00 | 0.84 | 0.00 | 84 | 1012.3 | |
| 20260507224517 | 8 | 0.0 | 0.0 | 0.00 | 0.84 | 0.00 | 84 | 1012.2 | |
| 20260507223516 | 8 | 0.0 | 0.0 | 0.00 | 0.84 | 0.00 | 85 | 1012.3 | |
| 20260507222537 | 8 | 0.0 | 0.0 | 0.00 | 0.84 | 0.00 | 85 | 1012.2 | |
| 20260507221517 | 8 | 0.0 | 3.2 | 0.00 | 0.84 | 0.00 | 85 | 1012.2 | |
| 20260507220516 | 8 | 338 | 6.4 | 6.4 | 0.00 | 0.84 | 0.00 | 85 | 1012.1 |
| 20260507215517 | 8 | 338 | 4.8 | 6.4 | 0.00 | 0.84 | 0.84 | 85 | 1012.0 |
| 20260507214517 | 8 | 23 | 6.4 | 6.4 | 0.00 | 0.84 | 0.84 | 85 | 1011.9 |
| 20260507213517 | 8 | 338 | 4.8 | 6.4 | 0.00 | 0.84 | 0.84 | 85 | 1011.9 |
| 20260507212517 | 9 | 315 | 3.2 | 4.8 | 0.00 | 0.84 | 0.84 | 85 | 1011.9 |
| 20260507211517 | 9 | 315 | 4.8 | 8.0 | 0.00 | 0.84 | 0.84 | 85 | 1011.8 |
| 20260507210517 | 10 | 0.0 | 0.0 | 0.00 | 0.84 | 0.84 | 85 | 1011.7 | |
| 20260507205516 | 10 | 0.0 | 0.0 | 0.00 | 0.84 | 0.84 | 85 | 1011.6 | |
| 20260507204517 | 10 | 0.0 | 0.0 | 0.00 | 0.84 | 0.84 | 85 | 1011.6 | |
| 20260507203517 | 10 | 0.0 | 0.0 | 0.00 | 0.84 | 0.84 | 85 | 1011.6 | |
| 20260507202557 | 11 | 338 | 3.2 | 4.8 | 0.00 | 0.84 | 0.84 | 84 | 1011.5 |
| 20260507201517 | 11 | 338 | 4.8 | 6.4 | 0.00 | 0.84 | 0.84 | 84 | 1011.4 |
| 20260507200516 | 11 | 338 | 4.8 | 6.4 | 0.00 | 0.84 | 0.84 | 84 | 1011.1 |
| 20260507195516 | 11 | 338 | 3.2 | 6.4 | 0.00 | 0.84 | 0.84 | 84 | 1011.1 |
| 20260507194536 | 11 | 338 | 1.6 | 6.4 | 0.00 | 0.84 | 0.84 | 84 | 1010.9 |
| 20260507193516 | 11 | 338 | 4.8 | 11.3 | 0.00 | 0.84 | 0.84 | 84 | 1010.6 |
| 20260507192517 | 11 | 338 | 8.0 | 12.9 | 0.00 | 0.84 | 0.84 | 84 | 1010.6 |
| 20260507191516 | 11 | 338 | 8.0 | 12.9 | 0.00 | 0.84 | 0.84 | 84 | 1010.4 |
| 20260507190516 | 11 | 338 | 11.3 | 16.1 | 0.00 | 0.84 | 0.84 | 84 | 1010.2 |
| 20260507185516 | 11 | 338 | 11.3 | 16.1 | 0.00 | 0.84 | 0.84 | 83 | 1010.1 |
| 20260507184516 | 12 | 338 | 9.7 | 16.1 | 0.00 | 0.84 | 0.84 | 83 | 1010.1 |
| 20260507183516 | 12 | 338 | 11.3 | 19.3 | 0.00 | 0.84 | 0.84 | 83 | 1009.9 |
| 20260507182516 | 12 | 338 | 14.5 | 20.9 | 0.00 | 0.84 | 0.84 | 83 | 1009.8 |
| 20260507181516 | 12 | 338 | 14.5 | 20.9 | 0.00 | 0.84 | 0.84 | 83 | 1009.7 |
| 20260507180516 | 12 | 338 | 14.5 | 20.9 | 0.00 | 0.84 | 0.84 | 84 | 1009.5 |
| 20260507175516 | 12 | 338 | 14.5 | 22.5 | 0.00 | 0.84 | 0.84 | 85 | 1009.5 |
| 20260507174516 | 12 | 338 | 17.7 | 25.7 | 0.00 | 0.84 | 0.84 | 85 | 1009.6 |
| 20260507173516 | 12 | 338 | 12.9 | 19.3 | 0.00 | 0.84 | 0.84 | 85 | 1009.7 |
| 20260507172516 | 12 | 338 | 14.5 | 20.9 | 0.00 | 0.84 | 0.84 | 85 | 1009.6 |
| 20260507171516 | 12 | 338 | 14.5 | 22.5 | 0.03 | 0.84 | 0.84 | 84 | 1009.4 |
| 20260507170516 | -17 | 0.0 | 0.0 | 0.10 | 0.84 | 0.84 | |||
| 20260507165516 | -17 | 0.0 | 0.0 | 0.25 | 0.84 | 0.84 | |||
| 20260507165016 | -17 | 0.0 | 0.0 | 0.25 | 0.84 | 0.84 | |||
| 20260507164016 | -17 | 0.0 | 0.0 | 0.28 | 0.84 | 0.84 | |||
| 20260507163543 | 11 | 0.0 | 0.0 | 0.30 | 0.84 | 0.84 | 84 | 1009.4 | |
| 20260507163107 | 11 | 315 | 16.1 | 17.7 | 0.33 | 0.84 | 0.84 | 84 | 1009.3 |
| 20260507162516 | 11 | 315 | 17.7 | 20.9 | 0.33 | 0.84 | 0.84 | 84 | 1009.5 |
| 20260507161536 | 11 | 315 | 16.1 | 17.7 | 0.30 | 0.81 | 0.81 | 84 | 1009.4 |
| 20260507161100 | 11 | 338 | 19.3 | 19.3 | 0.23 | 0.74 | 0.74 | 84 | 1009.3 |
| 20260507160535 | 11 | 338 | 16.1 | 20.9 | 0.23 | 0.74 | 0.74 | 84 | 1009.2 |
| 20260507160016 | 11 | 338 | 16.1 | 19.3 | 0.23 | 0.74 | 0.74 | 84 | 1009.1 |
| 20260507155600 | 12 | 23 | 16.1 | 16.1 | 0.05 | 0.58 | 0.58 | 84 | 1009.2 |
| 20260507155100 | 12 | 0.0 | 0.0 | 0.05 | 0.58 | 0.58 | 84 | 1009.2 | |
| 20260507154518 | 12 | 315 | 14.5 | 20.9 | 0.08 | 0.58 | 0.58 | 84 | 1009.4 |
| 20260507154016 | 12 | 315 | 9.7 | 14.5 | 0.10 | 0.56 | 0.56 | 84 | 1009.3 |
| 20260507153036 | 12 | 338 | 11.3 | 16.1 | 0.28 | 0.51 | 0.51 | 84 | 1009.3 |
| 20260507152036 | 12 | 338 | 14.5 | 19.3 | 0.51 | 0.51 | 0.51 | 84 | 1009.1 |
| 20260507151016 | 12 | 338 | 12.9 | 19.3 | 0.51 | 0.51 | 0.51 | 84 | 1009.1 |
| 20260507150016 | 12 | 338 | 16.1 | 22.5 | 0.51 | 0.51 | 0.51 | 84 | 1008.9 |
| 20260507145016 | 12 | 338 | 14.5 | 20.9 | 0.51 | 0.51 | 0.51 | 84 | 1008.7 |
| 20260507144036 | 13 | 338 | 19.3 | 27.4 | 0.46 | 0.46 | 0.46 | 84 | 1008.7 |
| 20260507143516 | 13 | 338 | 19.3 | 25.7 | 0.36 | 0.36 | 0.36 | 83 | 1008.7 |
| 20260507142516 | 15 | 338 | 17.7 | 24.1 | 0.05 | 0.05 | 0.05 | 79 | 1009.0 |
| 20260507141536 | 15 | 338 | 14.5 | 20.9 | 0.00 | 0.00 | 0.00 | 76 | 1008.9 |
| 20260507140536 | 15 | 338 | 17.7 | 25.7 | 0.00 | 0.00 | 0.00 | 77 | 1008.9 |
| 20260507135516 | 16 | 338 | 8.0 | 19.3 | 0.00 | 0.00 | 0.00 | 72 | 1009.0 |
| 20260507134536 | 17 | 0.0 | 1.6 | 0.00 | 0.00 | 0.00 | 60 | 1009.2 | |
| 20260507133516 | 17 | 338 | 4.8 | 14.5 | 0.00 | 0.00 | 0.00 | 62 | 1009.1 |
| 20260507132536 | 17 | 338 | 8.0 | 19.3 | 0.00 | 0.00 | 0.00 | 63 | 1009.2 |
| 20260507131536 | 17 | 338 | 3.2 | 11.3 | 0.00 | 0.00 | 0.00 | 63 | 1009.3 |
| 20260507130516 | 17 | 338 | 4.8 | 19.3 | 0.00 | 0.00 | 0.00 | 59 | 1009.4 |
| 20260507125536 | 18 | 338 | 8.0 | 17.7 | 0.00 | 0.00 | 0.00 | 59 | 1009.7 |
| 20260507124516 | 18 | 338 | 11.3 | 19.3 | 0.00 | 0.00 | 0.00 | 57 | 1009.8 |
| 20260507123516 | 18 | 338 | 4.8 | 17.7 | 0.00 | 0.00 | 0.00 | 55 | 1009.9 |